Location: Bangkok
(13.7500°N, 100.5170°E)
Time: 07:39:10
(UTC+07:00)

HST - Visible Passes

Search period start: 23 October 2014 00:00
Search period end: 02 November 2014 00:00
Orbit: 546 x 550 km, 28.5° (Epoch: 22 October)

Date Brightness Start Highest point End Pass type
(mag) Time Alt. Az. Time Alt. Az. Time Alt. Az.
23 Oct 3.7 03:59:19 11° SSE 03:59:19 11° SSE 03:59:30 10° SE visible
23 Oct 2.0 19:14:59 10° W 19:18:47 33° NNW 19:19:47 29° N visible
24 Oct 2.4 19:08:07 10° WNW 19:11:38 25° NNW 19:13:05 21° NNE visible
25 Oct 2.7 19:01:21 10° WNW 19:04:30 20° NNW 19:06:20 16° NNE visible
26 Oct 3.0 18:54:38 10° NW 18:57:23 17° NNW 18:59:33 12° NNE visible
27 Oct 3.1 18:48:00 10° NW 18:50:17 14° NNW 18:52:34 10° NNE visible
28 Oct 3.2 18:41:25 10° NW 18:43:12 12° N 18:45:00 10° NNE visible
29 Oct 3.2 18:34:52 10° NNW 18:36:08 11° N 18:37:24 10° NNE visible
30 Oct 3.3 18:28:17 10° NNW 18:29:04 10° N 18:29:51 10° N visible
31 Oct 3.3 18:21:30 10° N 18:22:00 10° N 18:22:30 10° N visible
01 Nov 3.2 18:14:11 10° N 18:14:55 10° N 18:15:40 10° NNE visible
